Location: Hylvaty SDH
(49.9612°N, 16.4057°E)
Time: 03:34:50
(UTC+01:00)

deb Explorer IX - Visible Passes

Search period start: 25 January 2020 00:00
Search period end: 04 February 2020 00:00
Orbit: 548 x 1101 km, 38.8° (Epoch: 24 January)

Date Brightness Start Highest point End Pass type
(mag) Time Alt. Az. Time Alt. Az. Time Alt. Az.
28 Jan ? 19:23:19 10° S 19:24:43 13° SSE 19:24:43 13° SSE visible
29 Jan ? 19:01:00 10° S 19:03:48 14° SSE 19:03:48 14° SSE visible
29 Jan ? 20:44:37 10° SW 20:45:10 12° SW 20:45:10 12° SW visible
30 Jan ? 18:38:43 10° S 18:41:51 14° SSE 18:42:51 14° SE visible
30 Jan ? 20:22:17 10° SW 20:24:13 18° SSW 20:24:13 18° SSW visible
31 Jan ? 18:16:27 10° S 18:19:24 14° SSE 18:21:50 11° ESE visible
31 Jan ? 19:59:56 10° SW 20:03:11 24° SSW 20:03:11 24° SSW visible
01 Feb ? 17:54:12 10° S 17:56:58 13° SSE 17:59:53 10° ESE visible
01 Feb ? 19:37:37 10° SW 19:42:07 27° S 19:42:07 27° S visible
01 Feb ? 21:23:24 10° WSW 21:23:28 10° WSW 21:23:28 10° WSW visible
02 Feb ? 17:31:59 10° S 17:34:32 13° SSE 17:37:13 10° ESE visible
02 Feb ? 19:15:18 10° SW 19:20:22 27° SSE 19:21:01 26° SSE visible
02 Feb ? 21:01:02 10° WSW 21:02:22 16° SW 21:02:22 16° SW visible
03 Feb ? 18:53:01 10° SW 18:57:54 26° SSE 18:59:53 23° SE visible
03 Feb ? 20:38:42 10° WSW 20:41:13 22° SW 20:41:13 22° SW visible
